Regional Weather Roundup
Issued by NWS

Home | Current Version | Previous Version | Graphics & Text | Print | Product List | Glossary On
Versions: 1 2 3 4 5 6 7 8 9 10 11 12 13 14 15 16 17 18 19 20 21 22 23 24 25 26 27 28
000
ASUS45 KSLC 221510
RWRUT

UTAH REGIONAL WEATHER ROUNDUP
NATIONAL WEATHER SERVICE SALT LAKE CITY UT
900 AM MDT TUE APR 22 2014

UTZ001>011-023>025-221600-

NORTHERN UTAH

CITY           SKY/WX    TMP DP  RH WIND       PRES   REMARKS
HILL AFB       MOSUNNY   67  30  25 S25       29.74F
LOGAN          CLOUDY    56  40  55 CALM      29.74F
OGDEN          CLOUDY    68  31  25 S20G26    29.72F
PROVO AIRPORT  CLOUDY    61  39  44 SE10      29.82F
SALT LAKE CITY CLOUDY    69  31  24 S20G29    29.75F
VERNAL         CLOUDY    57  35  43 CALM      29.91F
WENDOVER       MOSUNNY   52  30  43 CALM      29.69F
HEBER CITY     CLOUDY    63  30  29 S14G28    29.83F
WEST JORDAN    SUNNY     64  37  36 S16       29.78F

$$

UTZ012>022-026-027-221600-

SOUTHERN UTAH

CITY           SKY/WX    TMP DP  RH WIND       PRES   REMARKS
BRYCE CANYON   PTSUNNY   54  31  41 SE14      30.06F
CEDAR CITY     CLOUDY    62  30  29 SW18G24   29.90F
MILFORD        CLOUDY    64  32  30 S22G32    29.84F
MOAB/CYNLANDS  SUNNY     68  30  24 SE13      29.89F
PRICE          CLOUDY    57  31  37 E6        29.93F
ST GEORGE      CLOUDY    72  32  23 SE12      29.84F

$$

REGIONAL REPORTS     COLORADO/ARIZONA

CITY           SKY/WX    TMP DP  RH WIND       PRES   REMARKS
CRAIG, CO      PTSUNNY   53  33  46 E13       29.98F
GRAND JUNCTION CLOUDY    58  30  34 SE20      29.94F
RIFLE          CLOUDY    53  31  42 E8        30.00F
MONTROSE       PTSUNNY   61  31  32 CALM      30.05F
CORTEZ         MOSUNNY   64  34  32 SE9       30.08F
PAGE, AZ       PTSUNNY   68  31  25 W6        29.93F
GRAND CANYON   PTSUNNY   50  33  52 CALM      30.09S
KINGMAN        PTSUNNY   74  34  23 S13       29.89F
FLAGSTAFF      MOSUNNY   57  30  35 SW13      30.12F

$$

REGIONAL REPORTS    NEVADA/IDAHO/WYOMING

CITY           SKY/WX    TMP DP  RH WIND       PRES   REMARKS
LAS VEGAS, NV  CLOUDY    76  22  13 S21G31    29.73F
ELY            CLOUDY    59  28  30 SE29G37   29.77F
ELKO           CLOUDY    47  27  45 SW5       29.72F
POCATELLO, ID  SUNNY     59  39  47 E16       29.69F
BURLEY         CLOUDY    56  40  55 N9        29.67S
EVANSTON, WY     N/A     58  30  34 S18G28    29.88F
ROCK SPRINGS   CLOUDY    59  28  30 SW13      29.92F

$$



USA.gov is the U.S. government's official web portal to all federal, state and local government web resources and services.